User: anonymous   Login
Location: Unspecified
(0.0000°N, 0.0000°E)
Time: 20:20:07
(UTC+00:00)
Language:

FENGMANIU-1 - Orbit

View from above orbital plane
View from above orbital plane
View from above satellite
View from above satellite

Ground track
Ground track

The orbit data is extracted from the following two-line orbital elements,

1 43192U 18015A   18351.52527164  .00001940  00000-0  83981-4 0  9991
2 43192  97.3775 116.9964 0015475 214.7833 145.2393 15.23522869 48423
Epoch (UTC): 17 December 2018 12:36:23
Eccentricity: 0.0015475
inclination: 97.3775°
perigee height: 484 km
apogee height: 506 km
right ascension of ascending node: 116.9964°
argument of perigee: 214.7833°
revolutions per day: 15.23522869
mean anomaly at epoch: 145.2393°
orbit number at epoch: 4842

The dashed part of the orbit path shows where the satellite is in the earth's shadow,  

DLR